Location: Central Falls
(41.8900°N, 71.3929°W)
Time: 12:44:09
(UTC+00:00)

Altair - Pass Details

Date: 07 December 2023
Orbit: 1501 x 1682 km, 47.2° (Epoch: 20 February)

Event Time Altitude Azimuth Distance (km) Brightness Sun altitude
Rises 12:07:45 0° 229° (SW) 4,863 9.9 0.5°
Reaches altitude 10° 12:10:56 10° 227° (SW) 3,857 9.5 1.0°
Maximum altitude 12:20:39 70° 146° (SSE) 1,668 8.1 2.5°
Drops below altitude 10° 12:30:01 10° 66° (ENE) 3,725 10.0 3.9°
Sets 12:33:02 0° 64° (ENE) 4,690 10.5 4.4°
